This is the latest recevied weather packets stored in our database for station/object LA1HSA-13. If no packets are shown the sender has not sent any weather packets the latest 1 day(s).
| Time | Temp. | Humidity | Pressure | Rain* | Wind** | Luminosity | Snow |
|---|---|---|---|---|---|---|---|
| 1836274377 | 12.22° C | 99% | 1007.4 hPa | 0.25 mm | 0.89 m/s, 286° | - | - |
| 1836274227 | 12.22° C | 99% | 1007.2 hPa | 0.25 mm | 0 m/s | - | - |
| 1778040003 | -2.78° C | 81% | 1012.6 hPa | 0 mm | 0 m/s | - | - |
| 1778039403 | -3.33° C | 81% | 1012.6 hPa | 0 mm | 0 m/s | - | - |
| 1778038803 | -3.33° C | 83% | 1012.5 hPa | 0 mm | 0 m/s | - | - |
| 1778038203 | -3.33° C | 83% | 1012.4 hPa | 0 mm | 0 m/s | - | - |
| 1778037603 | -3.33° C | 82% | 1012.5 hPa | 0 mm | 0 m/s | - | - |
| 1778037003 | -3.33° C | 82% | 1012.6 hPa | 0 mm | 0 m/s | - | - |
| 1778036403 | -2.78° C | 80% | 1012.4 hPa | 0 mm | 0 m/s | - | - |
| 1778035803 | -2.78° C | 79% | 1012.4 hPa | 0 mm | 0 m/s | - | - |
| 1778035203 | -2.78° C | 80% | 1012.5 hPa | 0 mm | 0 m/s | - | - |
| 1778034604 | -2.78° C | 80% | 1012.5 hPa | 0 mm | 0 m/s | - | - |
| 1778034003 | -2.78° C | 80% | 1012.6 hPa | 0 mm | 0 m/s | - | - |
| 1778033403 | -3.33° C | 80% | 1012.5 hPa | 0 mm | 0 m/s | - | - |
| 1778032803 | -2.78° C | 80% | 1012.3 hPa | 0 mm | 0 m/s | - | - |
| 1778032203 | -2.78° C | 79% | 1012.4 hPa | 0 mm | 0 m/s | - | - |
| 1778031603 | -2.78° C | 78% | 1012.2 hPa | 0 mm | 0 m/s | - | - |
| 1778031003 | -2.78° C | 79% | 1012.4 hPa | 0 mm | 0.45 m/s, 90° | - | - |
| 1778030403 | -2.78° C | 79% | 1012.2 hPa | 0 mm | 0 m/s | - | - |
| 1778029803 | -2.78° C | 79% | 1012.1 hPa | 0 mm | 0 m/s | - | - |
| 1778029203 | -2.78° C | 77% | 1012.1 hPa | 0 mm | 0 m/s | - | - |
| 1778028603 | -2.22° C | 76% | 1011.7 hPa | 0 mm | 0 m/s | - | - |
| 1778028003 | -1.67° C | 76% | 1012.1 hPa | 0 mm | 0 m/s | - | - |
| 1778027404 | -2.22° C | 75% | 1012.1 hPa | 0 mm | 0 m/s | - | - |
| 1778026803 | -1.67° C | 75% | 1011.8 hPa | 0 mm | 0 m/s | - | - |
* Rain latest hour (hover to see other rain measurements)
** Current wind speed in m/s (hover to see current wind gust speed)